Regional Weather Roundup
Issued by NWS

Home | Current Version | Previous Version | Graphics & Text | Print | Product List | Glossary On
Versions: 1 2 3 4 5 6 7 8 9 10 11 12 13 14 15 16 17 18 19 20 21 22 23 24 25 26 27 28 29 30 31 32 33 34 35 36 37 38 39 40 41 42 43 44 45 46 47 48 49 50
000
ASUS44 KMEG 230800
RWRTN
TENNESSEE HOURLY STATE WEATHER ROUNDUP
NATIONAL WEATHER SERVICE MEMPHIS TN
200 AM CST THU FEB 23 2017

TNZ002-004-019-021-049-052-054-088>092-230900-
WEST TENNESSEE

CITY           SKY/WX    TMP DP  RH WIND       PRES   REMARKS
MEMPHIS INTL   CLEAR     56  54  93 S5        29.81S
NWS MEMPHIS      N/A     57 N/A N/A MISG        N/A
JACKSON        CLEAR     55  54  96 CALM      29.82S
UNION CITY     CLEAR    N/A N/A N/A CALM      29.78F
PARIS          CLEAR     52  50  93 SW3       29.82S
$$

TNZ008-025-027-028-033-062-065-066-230900-
NORTH MIDDLE TENNESSEE

CITY           SKY/WX    TMP DP  RH WIND       PRES   REMARKS
NASHVILLE      CLEAR     54  52  93 S6        29.84S FOG
CLARKSVILLE    PTCLDY    56  53  90 S5        29.82S
SMYRNA         FOG       53  53 100 CALM      29.85S VSB 1/2
CROSSVILLE     FOG       51  51 100 SE3       29.90S VSB 1/4
$$

TNZ061-075-076-078-094-096-097-230900-
SOUTH MIDDLE TENNESSEE

CITY           SKY/WX    TMP DP  RH WIND       PRES   REMARKS
TULLAHOMA      CLEAR     46  46 100 CALM      29.87F
WINCHESTER     PTCLDY    54  54 100 SE5       29.87F
MCMINNVILLE    CLOUDY    48  48 100 CALM      29.86F VSB 1/4
COLUMBIA       CLEAR    N/A N/A N/A CALM      29.82F
SHELBYVILLE    CLEAR     59  57  94 SE6       29.86S
$$

TNZ017-018-042-046-047-230900-
NORTHEAST TENNESSEE

CITY           SKY/WX    TMP DP  RH WIND       PRES   REMARKS
TRI CITIES     FOG       46  45  96 N3        29.90F VSB 1/4
$$

TNZ012-013-036-069-073-074-230900-
CENTRAL EAST TENNESSEE

CITY           SKY/WX    TMP DP  RH WIND       PRES   REMARKS
KNOXVILLE      FOG       54  53  97 NE5       29.88R VSB 1/8
OAK RIDGE      FOG       51  50  96 CALM      29.90S VSB 1/2
GATLINBURG     CLOUDY    52  52 100 CALM      29.88S VSB 1/4
$$

TNZ083-085-099-230900-
SOUTHEAST TENNESSEE

CITY           SKY/WX    TMP DP  RH WIND       PRES   REMARKS
CHATTANOOGA    FOG       52  51  97 CALM      29.88S VSB 1/4
$$

SKY/WX REPORTED AS FAIR MEANS FEW OR NO CLOUDS BELOW
12 THOUSAND FEET.




USA.gov is the U.S. government's official web portal to all federal, state and local government web resources and services.